| time (UTC) | temp F | wind direction | speed MPH | gust MPH | rain 1hr in | rain 24hr in | rain mn in | humidity % | barometer mb |
| 20260905232824 | 100 | 13 | 2.0 | 6.0 | 0.00 | 0.00 | 0.00 | 39 | 1010.4 |
| 20260905232323 | 100 | 161 | 1.0 | 5.0 | 0.00 | 0.00 | 0.00 | 39 | 1010.4 |
| 20260905231823 | 100 | 209 | 2.0 | 9.0 | 0.00 | 0.00 | 0.00 | 38 | 1010.2 |
| 20260905231615 | 100 | 81 | 2.0 | 9.0 | 0.00 | 0.00 | 0.00 | 39 | 1010.4 |
| 20260905230820 | 100 | 146 | 1.0 | 7.0 | 0.00 | 0.00 | 0.00 | 38 | 1010.5 |
| 20260905230321 | 100 | 109 | 2.0 | 8.0 | 0.00 | 0.00 | 0.00 | 38 | 1010.5 |
| 20260905225820 | 100 | 155 | 2.0 | 8.0 | 0.00 | 0.00 | 0.00 | 38 | 1010.4 |
| 20260905225323 | 101 | 270 | 2.0 | 4.0 | 0.00 | 0.00 | 0.00 | 39 | 1010.5 |
| 20260905224821 | 100 | 193 | 2.0 | 8.0 | 0.00 | 0.00 | 0.00 | 39 | 1010.4 |
| 20260905224321 | 100 | 181 | 2.0 | 8.0 | 0.00 | 0.00 | 0.00 | 38 | 1010.4 |
| 20260905224110 | 101 | 167 | 1.0 | 5.0 | 0.00 | 0.00 | 0.00 | 39 | 1010.4 |
| 20260905223322 | 101 | 130 | 1.0 | 4.0 | 0.00 | 0.00 | 0.00 | 38 | 1010.2 |
| 20260905222820 | 101 | 197 | 2.0 | 8.0 | 0.00 | 0.00 | 0.00 | 38 | 1010.2 |
| 20260905222314 | 101 | 107 | 2.0 | 8.0 | 0.00 | 0.00 | 0.00 | 37 | 1010.4 |
| 20260905222106 | 101 | 180 | 2.0 | 5.0 | 0.00 | 0.00 | 0.00 | 38 | 1010.2 |
| 20260905221305 | 101 | 318 | 2.0 | 5.0 | 0.00 | 0.00 | 0.00 | 36 | 1010.4 |
| 20260905221058 | 101 | 177 | 2.0 | 5.0 | 0.00 | 0.00 | 0.00 | 37 | 1010.5 |
| 20260905220304 | 101 | 54 | 2.0 | 7.0 | 0.00 | 0.00 | 0.00 | 37 | 1010.6 |
| 20260905215804 | 101 | 184 | 2.0 | 7.0 | 0.00 | 0.00 | 0.00 | 38 | 1010.6 |
| 20260905215306 | 101 | 218 | 2.0 | 6.0 | 0.00 | 0.00 | 0.00 | 39 | 1010.6 |
| 20260905214804 | 101 | 229 | 3.0 | 8.0 | 0.00 | 0.00 | 0.00 | 39 | 1010.6 |
| 20260905214305 | 101 | 178 | 3.0 | 8.0 | 0.00 | 0.00 | 0.00 | 39 | 1010.6 |
| 20260905213808 | 101 | 17 | 2.0 | 6.0 | 0.00 | 0.00 | 0.00 | 39 | 1010.7 |
| 20260905213305 | 101 | 355 | 2.0 | 6.0 | 0.00 | 0.00 | 0.00 | 39 | 1010.8 |
| 20260905212804 | 101 | 97 | 2.0 | 9.0 | 0.00 | 0.00 | 0.00 | 40 | 1010.8 |
| 20260905212306 | 101 | 254 | 3.0 | 9.0 | 0.00 | 0.00 | 0.00 | 40 | 1010.9 |
| 20260905212103 | 101 | 157 | 2.0 | 8.0 | 0.00 | 0.00 | 0.00 | 40 | 1011.0 |
| 20260905211601 | 101 | 291 | 2.0 | 5.0 | 0.00 | 0.00 | 0.00 | 42 | 1011.1 |
| 20260905210800 | 100 | 171 | 1.0 | 4.0 | 0.00 | 0.00 | 0.00 | 41 | 1011.1 |
| 20260905210254 | 99 | 303 | 1.0 | 3.0 | 0.00 | 0.00 | 0.00 | 41 | 1011.2 |
| 20260905205749 | 99 | 279 | 3.0 | 2.0 | 0.00 | 0.00 | 0.00 | 41 | 1011.3 |
| 20260905205359 | 99 | 184 | 3.0 | 8.0 | 0.00 | 0.00 | 0.00 | 42 | 1011.4 |
| 20260905204602 | 98 | 163 | 2.0 | 7.0 | 0.00 | 0.00 | 0.00 | 42 | 1011.4 |
| 20260905204103 | 99 | 148 | 1.0 | 7.0 | 0.00 | 0.00 | 0.00 | 42 | 1011.6 |
| 20260905203604 | 99 | 254 | 1.0 | 4.0 | 0.00 | 0.00 | 0.00 | 43 | 1011.8 |
| 20260905203103 | 100 | 234 | 1.0 | 4.0 | 0.00 | 0.00 | 0.00 | 42 | 1011.7 |
| 20260905202602 | 99 | 132 | 1.0 | 4.0 | 0.00 | 0.00 | 0.00 | 45 | 1011.7 |
| 20260905202103 | 98 | 265 | 1.0 | 4.0 | 0.00 | 0.00 | 0.00 | 43 | 1011.9 |
| 20260905201601 | 98 | 110 | 2.0 | 7.0 | 0.00 | 0.00 | 0.00 | 44 | 1012.0 |
| 20260905201100 | 98 | 196 | 2.0 | 7.0 | 0.00 | 0.00 | 0.00 | 45 | 1012.0 |
| 20260905200600 | 99 | 121 | 1.0 | 6.0 | 0.00 | 0.00 | 0.00 | 41 | 1012.1 |
| 20260905200354 | 99 | 43 | 2.0 | 6.0 | 0.00 | 0.00 | 0.00 | 42 | 1012.2 |
| 20260905195558 | 98 | 80 | 2.0 | 5.0 | 0.00 | 0.00 | 0.00 | 44 | 1012.3 |
| 20260905195059 | 98 | 138 | 2.0 | 5.0 | 0.00 | 0.00 | 0.00 | 44 | 1012.3 |
| 20260905194557 | 98 | 160 | 1.0 | 6.0 | 0.00 | 0.00 | 0.00 | 44 | 1012.3 |
| 20260905194351 | 98 | 300 | 2.0 | 6.0 | 0.00 | 0.00 | 0.00 | 43 | 1012.4 |
| 20260905193558 | 99 | 96 | 1.0 | 6.0 | 0.00 | 0.00 | 0.00 | 44 | 1012.5 |
| 20260905193056 | 99 | 74 | 2.0 | 6.0 | 0.00 | 0.00 | 0.00 | 43 | 1012.5 |
| 20260905192855 | 99 | 148 | 2.0 | 6.0 | 0.00 | 0.00 | 0.00 | 45 | 1012.6 |
| 20260905192056 | 98 | 167 | 3.0 | 7.0 | 0.00 | 0.00 | 0.00 | 45 | 1012.8 |
| 20260905191556 | 99 | 98 | 3.0 | 7.0 | 0.00 | 0.00 | 0.00 | 44 | 1012.9 |
| 20260905191055 | 98 | 254 | 2.0 | 7.0 | 0.00 | 0.00 | 0.00 | 45 | 1013.1 |
| 20260905190554 | 98 | 53 | 2.0 | 7.0 | 0.00 | 0.00 | 0.00 | 45 | 1013.1 |
| 20260905190052 | 98 | 168 | 2.0 | 7.0 | 0.00 | 0.00 | 0.00 | 46 | 1013.1 |
| 20260905185553 | 98 | 241 | 2.0 | 6.0 | 0.00 | 0.00 | 0.00 | 46 | 1013.1 |
| 20260905185343 | 97 | 184 | 2.0 | 7.0 | 0.00 | 0.00 | 0.00 | 48 | 1013.3 |
| 20260905184553 | 97 | 191 | 3.0 | 7.0 | 0.00 | 0.00 | 0.00 | 47 | 1013.5 |
| 20260905184052 | 97 | 172 | 2.0 | 6.0 | 0.00 | 0.00 | 0.00 | 49 | 1013.5 |
| 20260905183549 | 96 | 329 | 2.0 | 5.0 | 0.00 | 0.00 | 0.00 | 47 | 1013.5 |
| 20260905183051 | 97 | 168 | 2.0 | 8.0 | 0.00 | 0.00 | 0.00 | 46 | 1013.6 |
| 20260905182548 | 97 | 332 | 3.0 | 8.0 | 0.00 | 0.00 | 0.00 | 46 | 1013.7 |
| 20260905182048 | 97 | 140 | 2.0 | 6.0 | 0.00 | 0.00 | 0.00 | 47 | 1013.8 |
| 20260905181546 | 97 | 24 | 2.0 | 8.0 | 0.00 | 0.00 | 0.00 | 46 | 1013.7 |
| 20260905181044 | 97 | 63 | 3.0 | 8.0 | 0.00 | 0.00 | 0.00 | 45 | 1013.8 |
| 20260905180544 | 97 | 175 | 2.0 | 7.0 | 0.00 | 0.00 | 0.00 | 46 | 1013.9 |
| 20260905180332 | 96 | 158 | 2.0 | 5.0 | 0.00 | 0.00 | 0.00 | 48 | 1013.9 |
| 20260905175544 | 96 | 111 | 2.0 | 6.0 | 0.00 | 0.00 | 0.00 | 50 | 1014.1 |
| 20260905175045 | 96 | 112 | 2.0 | 7.0 | 0.00 | 0.00 | 0.00 | 49 | 1014.1 |
| 20260905174544 | 96 | 138 | 2.0 | 7.0 | 0.00 | 0.00 | 0.00 | 49 | 1014.1 |
| 20260905174040 | 96 | 192 | 2.0 | 7.0 | 0.00 | 0.00 | 0.00 | 49 | 1014.3 |
| 20260905173538 | 95 | 248 | 2.0 | 7.0 | 0.00 | 0.00 | 0.00 | 50 | 1014.3 |
| 20260905173038 | 96 | 207 | 2.0 | 6.0 | 0.00 | 0.00 | 0.00 | 49 | 1014.3 |
| 20260905172538 | 95 | 232 | 2.0 | 6.0 | 0.00 | 0.00 | 0.00 | 53 | 1014.4 |
| 20260905172038 | 95 | 186 | 2.0 | 5.0 | 0.00 | 0.00 | 0.00 | 53 | 1014.5 |
| 20260905171538 | 94 | 211 | 2.0 | 6.0 | 0.00 | 0.00 | 0.00 | 53 | 1014.6 |
| 20260905171039 | 94 | 205 | 2.0 | 6.0 | 0.00 | 0.00 | 0.00 | 53 | 1014.6 |
| 20260905170538 | 94 | 208 | 2.0 | 6.0 | 0.00 | 0.00 | 0.00 | 54 | 1014.6 |
| 20260905170038 | 94 | 171 | 2.0 | 5.0 | 0.00 | 0.00 | 0.00 | 54 | 1014.7 |
| 20260905165538 | 94 | 140 | 2.0 | 8.0 | 0.00 | 0.00 | 0.00 | 56 | 1014.8 |
| 20260905165041 | 93 | 149 | 2.0 | 8.0 | 0.00 | 0.00 | 0.00 | 56 | 1014.9 |
| 20260905164538 | 93 | 169 | 2.0 | 7.0 | 0.00 | 0.00 | 0.00 | 56 | 1014.9 |
| 20260905164038 | 92 | 303 | 1.0 | 5.0 | 0.00 | 0.00 | 0.00 | 57 | 1014.8 |
| 20260905163537 | 92 | 355 | 1.0 | 4.0 | 0.00 | 0.00 | 0.00 | 56 | 1014.9 |
| 20260905163036 | 92 | 257 | 2.0 | 5.0 | 0.00 | 0.00 | 0.00 | 57 | 1014.8 |
| 20260905162536 | 92 | 34 | 1.0 | 5.0 | 0.00 | 0.00 | 0.00 | 56 | 1014.9 |
| 20260905162034 | 92 | 122 | 1.0 | 6.0 | 0.00 | 0.00 | 0.00 | 57 | 1014.9 |
| 20260905161530 | 92 | 211 | 1.0 | 6.0 | 0.00 | 0.00 | 0.00 | 58 | 1014.9 |
| 20260905161030 | 92 | 348 | 1.0 | 6.0 | 0.00 | 0.00 | 0.00 | 58 | 1014.7 |
| 20260905160530 | 91 | 173 | 2.0 | 6.0 | 0.00 | 0.00 | 0.00 | 59 | 1014.9 |
| 20260905160326 | 91 | 288 | 2.0 | 5.0 | 0.00 | 0.00 | 0.00 | 59 | 1014.9 |
| 20260905155530 | 91 | 233 | 2.0 | 5.0 | 0.00 | 0.00 | 0.00 | 59 | 1014.9 |
| 20260905155030 | 91 | 286 | 2.0 | 6.0 | 0.00 | 0.00 | 0.00 | 60 | 1014.9 |
| 20260905154828 | 91 | 280 | 1.0 | 6.0 | 0.00 | 0.00 | 0.00 | 60 | 1014.8 |
| 20260905154328 | 91 | 242 | 1.0 | 4.0 | 0.00 | 0.00 | 0.00 | 61 | 1014.8 |
| 20260905153529 | 91 | 172 | 2.0 | 5.0 | 0.00 | 0.00 | 0.00 | 62 | 1014.9 |
| 20260905153024 | 90 | 143 | 2.0 | 5.0 | 0.00 | 0.00 | 0.00 | 63 | 1014.9 |
| 20260905152619 | 89 | 178 | 1.0 | 5.0 | 0.00 | 0.00 | 0.00 | 64 | 1014.8 |
| 20260905152556 | 90 | 25 | 2.0 | 5.0 | 0.00 | 0.00 | 0.00 | 63 | 1014.9 |
| 20260905151524 | 89 | 178 | 1.0 | 5.0 | 0.00 | 0.00 | 0.00 | 64 | 1014.9 |
| 20260905151024 | 89 | 183 | 2.0 | 5.0 | 0.00 | 0.00 | 0.00 | 64 | 1014.9 |
| 20260905150523 | 89 | 304 | 2.0 | 4.0 | 0.00 | 0.00 | 0.00 | 64 | 1015.0 |
| 20260905150027 | 88 | 284 | 1.0 | 6.0 | 0.00 | 0.00 | 0.00 | 64 | 1014.9 |
| 20260905145523 | 88 | 336 | 1.0 | 6.0 | 0.00 | 0.00 | 0.00 | 66 | 1014.8 |
| 20260905145022 | 88 | 270 | 1.0 | 6.0 | 0.00 | 0.00 | 0.00 | 66 | 1014.9 |
| 20260905144520 | 88 | 309 | 2.0 | 6.0 | 0.00 | 0.00 | 0.00 | 66 | 1014.9 |
| 20260905144020 | 88 | 255 | 2.0 | 6.0 | 0.00 | 0.00 | 0.00 | 67 | 1014.7 |
| 20260905143817 | 88 | 194 | 2.0 | 6.0 | 0.00 | 0.00 | 0.00 | 68 | 1014.6 |
| 20260905143021 | 87 | 318 | 2.0 | 5.0 | 0.00 | 0.00 | 0.00 | 68 | 1014.7 |
| 20260905142521 | 87 | 181 | 2.0 | 6.0 | 0.00 | 0.00 | 0.00 | 70 | 1014.8 |
| 20260905142123 | 86 | 273 | 1.0 | 4.0 | 0.00 | 0.00 | 0.00 | 71 | 1014.7 |
| 20260905142100 | 87 | 198 | 1.0 | 6.0 | 0.00 | 0.00 | 0.00 | 70 | 1014.6 |
| 20260905141019 | 86 | 169 | 2.0 | 7.0 | 0.00 | 0.00 | 0.00 | 71 | 1014.7 |
| 20260905140520 | 85 | 184 | 2.0 | 7.0 | 0.00 | 0.00 | 0.00 | 72 | 1014.7 |
| 20260905140020 | 85 | 197 | 2.0 | 5.0 | 0.00 | 0.00 | 0.00 | 73 | 1014.6 |
| 20260905135520 | 84 | 171 | 1.0 | 5.0 | 0.00 | 0.00 | 0.00 | 74 | 1014.6 |
| 20260905135020 | 84 | 178 | 1.0 | 6.0 | 0.00 | 0.00 | 0.00 | 76 | 1014.5 |
| 20260905134519 | 83 | 215 | 1.0 | 6.0 | 0.00 | 0.00 | 0.00 | 78 | 1014.7 |
| 20260905134117 | 82 | 187 | 1.0 | 4.0 | 0.00 | 0.00 | 0.00 | 80 | 1014.6 |
| 20260905134050 | 82 | 200 | 1.0 | 5.0 | 0.00 | 0.00 | 0.00 | 79 | 1014.6 |
| 20260905133018 | 81 | 171 | 1.0 | 4.0 | 0.00 | 0.00 | 0.00 | 81 | 1014.4 |
| 20260905132518 | 81 | 131 | 1.0 | 6.0 | 0.00 | 0.00 | 0.00 | 81 | 1014.4 |
| 20260905132018 | 80 | 162 | 1.0 | 6.0 | 0.00 | 0.00 | 0.00 | 82 | 1014.5 |
| 20260905131518 | 80 | 182 | 1.0 | 3.0 | 0.00 | 0.00 | 0.00 | 83 | 1014.4 |
| 20260905131313 | 80 | 167 | 1.0 | 3.0 | 0.00 | 0.00 | 0.00 | 83 | 1014.4 |
| 20260905130518 | 79 | 190 | 1.0 | 3.0 | 0.00 | 0.00 | 0.00 | 83 | 1014.3 |
| 20260905130017 | 79 | 209 | 0.0 | 2.0 | 0.00 | 0.00 | 0.00 | 84 | 1014.3 |
| 20260905125516 | 79 | 142 | 0.0 | 2.0 | 0.00 | 0.00 | 0.00 | 83 | 1014.3 |
| 20260905125013 | 79 | 179 | 0.0 | 2.0 | 0.00 | 0.00 | 0.00 | 83 | 1014.2 |
| 20260905124514 | 79 | 189 | 0.0 | 2.0 | 0.00 | 0.00 | 0.00 | 83 | 1014.1 |
| 20260905124307 | 79 | 198 | 0.0 | 1.0 | 0.00 | 0.00 | 0.00 | 83 | 1014.0 |
| 20260905123758 | 79 | 198 | 0.0 | 1.0 | 0.00 | 0.00 | 0.00 | 82 | 1014.0 |
| 20260905123014 | 79 | 198 | 0.0 | 1.0 | 0.00 | 0.00 | 0.00 | 82 | 1014.0 |
| 20260905122514 | 79 | 198 | 0.0 | 0.0 | 0.00 | 0.00 | 0.00 | 82 | 1013.9 |
| 20260905122014 | 79 | 198 | 0.0 | 0.0 | 0.00 | 0.00 | 0.00 | 82 | 1013.9 |
| 20260905121514 | 79 | 198 | 0.0 | 2.0 | 0.00 | 0.00 | 0.00 | 82 | 1013.8 |
| 20260905121316 | 79 | 198 | 0.0 | 3.0 | 0.00 | 0.00 | 0.00 | 82 | 1013.7 |
| 20260905120519 | 79 | 188 | 0.0 | 3.0 | 0.00 | 0.00 | 0.00 | 82 | 1013.7 |
| 20260905120014 | 79 | 166 | 0.0 | 3.0 | 0.00 | 0.00 | 0.00 | 82 | 1013.6 |
| 20260905115514 | 79 | 190 | 0.0 | 2.0 | 0.00 | 0.00 | 0.00 | 82 | 1013.6 |
| 20260905115012 | 79 | 176 | 0.0 | 2.0 | 0.00 | 0.00 | 0.00 | 81 | 1013.5 |
| 20260905114806 | 79 | 184 | 1.0 | 2.0 | 0.00 | 0.00 | 0.00 | 82 | 1013.5 |
| 20260905114309 | 79 | 159 | 1.0 | 2.0 | 0.00 | 0.00 | 0.00 | 82 | 1013.6 |
| 20260905113512 | 79 | 184 | 0.0 | 2.0 | 0.00 | 0.00 | 0.00 | 82 | 1013.6 |
| 20260905113013 | 79 | 186 | 0.0 | 2.0 | 0.00 | 0.00 | 0.00 | 82 | 1013.5 |
| 20260905112511 | 79 | 182 | 1.0 | 3.0 | 0.00 | 0.00 | 0.00 | 82 | 1013.5 |
| 20260905112011 | 79 | 143 | 1.0 | 4.0 | 0.00 | 0.00 | 0.00 | 82 | 1013.5 |
| 20260905111510 | 79 | 146 | 0.0 | 4.0 | 0.00 | 0.00 | 0.00 | 83 | 1013.4 |
| 20260905111010 | 79 | 165 | 0.0 | 3.0 | 0.00 | 0.00 | 0.00 | 83 | 1013.4 |
| 20260905110510 | 79 | 178 | 0.0 | 2.0 | 0.00 | 0.00 | 0.00 | 83 | 1013.4 |
| 20260905110020 | 79 | 196 | 0.0 | 1.0 | 0.00 | 0.00 | 0.00 | 83 | 1013.5 |
| 20260905105513 | 79 | 196 | 0.0 | 1.0 | 0.00 | 0.00 | 0.00 | 83 | 1013.7 |
| 20260905105009 | 79 | 197 | 0.0 | 1.0 | 0.00 | 0.00 | 0.00 | 83 | 1013.6 |
| 20260905104510 | 80 | 193 | 0.0 | 1.0 | 0.00 | 0.00 | 0.00 | 82 | 1013.7 |
| 20260905104308 | 79 | 193 | 0.0 | 2.0 | 0.00 | 0.00 | 0.00 | 81 | 1013.8 |
| 20260905103809 | 79 | 180 | 0.0 | 2.0 | 0.00 | 0.00 | 0.00 | 80 | 1013.8 |
| 20260905103306 | 80 | 169 | 0.0 | 0.0 | 0.00 | 0.00 | 0.00 | 80 | 1013.9 |
| 20260905102510 | 80 | 169 | 0.0 | 0.0 | 0.00 | 0.00 | 0.00 | 80 | 1013.8 |
| 20260905102009 | 80 | 169 | 0.0 | 0.0 | 0.00 | 0.00 | 0.00 | 79 | 1013.8 |
| 20260905101506 | 80 | 169 | 0.0 | 0.0 | 0.00 | 0.00 | 0.00 | 79 | 1013.7 |
| 20260905101005 | 81 | 169 | 0.0 | 0.0 | 0.00 | 0.00 | 0.00 | 80 | 1013.7 |
| 20260905100507 | 81 | 169 | 0.0 | 0.0 | 0.00 | 0.00 | 0.00 | 80 | 1013.7 |
| 20260905100301 | 81 | 169 | 0.0 | 0.0 | 0.00 | 0.00 | 0.00 | 78 | 1013.7 |
| 20260905095505 | 81 | 169 | 0.0 | 1.0 | 0.00 | 0.00 | 0.00 | 76 | 1013.6 |
| 20260905095005 | 81 | 169 | 0.0 | 2.0 | 0.00 | 0.00 | 0.00 | 75 | 1013.6 |
| 20260905094505 | 81 | 168 | 0.0 | 2.0 | 0.00 | 0.00 | 0.00 | 75 | 1013.6 |
| 20260905094007 | 81 | 166 | 0.0 | 2.0 | 0.00 | 0.00 | 0.00 | 74 | 1013.6 |
| 20260905093605 | 82 | 173 | 0.0 | 2.0 | 0.00 | 0.00 | 0.00 | 74 | 1013.5 |
| 20260905093538 | 81 | 205 | 0.0 | 2.0 | 0.00 | 0.00 | 0.00 | 74 | 1013.6 |
| 20260905092504 | 82 | 173 | 1.0 | 2.0 | 0.00 | 0.00 | 0.00 | 74 | 1013.3 |
| 20260905092005 | 82 | 191 | 1.0 | 4.0 | 0.00 | 0.00 | 0.00 | 74 | 1013.3 |
| 20260905091503 | 82 | 192 | 1.0 | 4.0 | 0.00 | 0.00 | 0.00 | 74 | 1013.2 |
| 20260905091005 | 82 | 194 | 1.0 | 2.0 | 0.00 | 0.00 | 0.00 | 73 | 1013.2 |
| 20260905090504 | 82 | 189 | 0.0 | 3.0 | 0.00 | 0.00 | 0.00 | 73 | 1013.2 |
| 20260905090306 | 82 | 182 | 0.0 | 3.0 | 0.00 | 0.00 | 0.00 | 72 | 1013.0 |
| 20260905085505 | 82 | 188 | 0.0 | 1.0 | 0.00 | 0.00 | 0.00 | 72 | 1013.1 |
| 20260905085005 | 82 | 187 | 0.0 | 1.0 | 0.00 | 0.00 | 0.00 | 71 | 1013.1 |
| 20260905084502 | 83 | 189 | 0.0 | 2.0 | 0.00 | 0.00 | 0.00 | 71 | 1013.0 |
| 20260905084001 | 83 | 196 | 0.0 | 2.0 | 0.00 | 0.00 | 0.00 | 71 | 1013.1 |
| 20260905083501 | 83 | 179 | 0.0 | 1.0 | 0.00 | 0.00 | 0.00 | 70 | 1013.1 |
| 20260905083001 | 83 | 197 | 0.0 | 2.0 | 0.00 | 0.00 | 0.00 | 70 | 1013.2 |
| 20260905082503 | 83 | 197 | 1.0 | 3.0 | 0.00 | 0.00 | 0.00 | 70 | 1013.0 |
| 20260905082250 | 83 | 188 | 1.0 | 3.0 | 0.00 | 0.00 | 0.00 | 69 | 1013.1 |
| 20260905081501 | 83 | 192 | 1.0 | 5.0 | 0.00 | 0.00 | 0.00 | 69 | 1013.1 |
| 20260905081001 | 83 | 204 | 1.0 | 5.0 | 0.00 | 0.00 | 0.00 | 69 | 1013.0 |
| 20260905080757 | 84 | 196 | 1.0 | 5.0 | 0.00 | 0.00 | 0.00 | 69 | 1013.0 |
| 20260905080008 | 84 | 204 | 1.0 | 5.0 | 0.00 | 0.00 | 0.00 | 69 | 1013.1 |
| 20260905075501 | 84 | 197 | 1.0 | 4.0 | 0.00 | 0.00 | 0.00 | 68 | 1013.0 |
| 20260905074959 | 84 | 165 | 2.0 | 4.0 | 0.00 | 0.00 | 0.00 | 68 | 1013.0 |
| 20260905074500 | 84 | 199 | 2.0 | 5.0 | 0.00 | 0.00 | 0.00 | 68 | 1012.9 |
| 20260905073958 | 84 | 209 | 2.0 | 5.0 | 0.00 | 0.00 | 0.00 | 68 | 1013.1 |
| 20260905073456 | 84 | 155 | 2.0 | 5.0 | 0.00 | 0.00 | 0.00 | 68 | 1013.1 |
| 20260905072956 | 84 | 181 | 2.0 | 5.0 | 0.00 | 0.00 | 0.00 | 67 | 1013.2 |
| 20260905072456 | 85 | 148 | 2.0 | 5.0 | 0.00 | 0.00 | 0.00 | 67 | 1013.2 |
| 20260905071956 | 85 | 156 | 1.0 | 5.0 | 0.00 | 0.00 | 0.00 | 67 | 1013.3 |
| 20260905071453 | 85 | 194 | 2.0 | 5.0 | 0.00 | 0.00 | 0.00 | 67 | 1013.2 |
| 20260905070955 | 85 | 145 | 2.0 | 1.0 | 0.00 | 0.00 | 0.00 | 67 | 1013.4 |
| 20260905070251 | 85 | 161 | 1.0 | 4.0 | 0.00 | 0.00 | 0.00 | 67 | 1013.3 |
| 20260905065753 | 85 | 157 | 1.0 | 4.0 | 0.00 | 0.00 | 0.00 | 67 | 1013.2 |
| 20260905065249 | 85 | 196 | 2.0 | 6.0 | 0.00 | 0.00 | 0.00 | 66 | 1013.3 |
| 20260905064749 | 85 | 193 | 2.0 | 6.0 | 0.00 | 0.00 | 0.00 | 66 | 1013.3 |
| 20260905064249 | 85 | 149 | 1.0 | 4.0 | 0.00 | 0.00 | 0.00 | 66 | 1013.4 |
| 20260905063749 | 86 | 173 | 1.0 | 6.0 | 0.00 | 0.00 | 0.00 | 66 | 1013.4 |
| 20260905063250 | 86 | 168 | 3.0 | 7.0 | 0.00 | 0.00 | 0.00 | 66 | 1013.3 |
| 20260905062749 | 86 | 189 | 3.0 | 7.0 | 0.00 | 0.00 | 0.00 | 66 | 1013.4 |
| 20260905062247 | 86 | 167 | 2.0 | 9.0 | 0.00 | 0.00 | 0.00 | 66 | 1013.3 |
| 20260905061746 | 86 | 159 | 2.0 | 9.0 | 0.00 | 0.00 | 0.00 | 66 | 1013.3 |
| 20260905061246 | 86 | 184 | 2.0 | 6.0 | 0.00 | 0.00 | 0.00 | 65 | 1013.3 |
| 20260905060743 | 86 | 193 | 2.0 | 5.0 | 0.00 | 0.00 | 0.00 | 65 | 1013.4 |
| 20260905060243 | 86 | 130 | 2.0 | 8.0 | 0.00 | 0.00 | 0.00 | 65 | 1013.3 |
| 20260905055744 | 86 | 175 | 3.0 | 8.0 | 0.00 | 0.00 | 0.00 | 65 | 1013.3 |
| 20260905055333 | 87 | 217 | 2.0 | 5.0 | 0.00 | 0.00 | 0.00 | 64 | 1013.2 |
| 20260905055311 | 86 | 148 | 2.0 | 7.0 | 0.00 | 0.00 | 0.00 | 65 | 1013.3 |
| 20260905054239 | 87 | 163 | 2.0 | 7.0 | 0.00 | 0.00 | 0.00 | 64 | 1013.4 |
| 20260905053739 | 87 | 176 | 2.0 | 7.0 | 0.00 | 0.00 | 0.00 | 64 | 1013.2 |
| 20260905053240 | 87 | 146 | 2.0 | 6.0 | 0.00 | 0.00 | 0.00 | 63 | 1013.2 |
| 20260905052739 | 87 | 198 | 2.0 | 6.0 | 0.00 | 0.00 | 0.00 | 63 | 1013.2 |
| 20260905052642 | 87 | 161 | 3.0 | 8.0 | 0.00 | 0.00 | 0.00 | 63 | 1013.0 |
| 20260905051737 | 87 | 156 | 3.0 | 8.0 | 0.00 | 0.00 | 0.00 | 62 | 1013.1 |
| 20260905051238 | 87 | 155 | 2.0 | 7.0 | 0.00 | 0.00 | 0.00 | 62 | 1013.0 |
| 20260905050739 | 87 | 192 | 2.0 | 7.0 | 0.00 | 0.00 | 0.00 | 61 | 1013.1 |
| 20260905050525 | 88 | 155 | 2.0 | 5.0 | 0.00 | 0.00 | 0.00 | 61 | 1013.0 |
| 20260905045736 | 88 | 146 | 3.0 | 5.0 | 0.00 | 0.00 | 0.00 | 61 | 1013.0 |
| 20260905045236 | 88 | 155 | 2.0 | 8.0 | 0.00 | 0.00 | 0.00 | 60 | 1013.1 |
| 20260905044736 | 88 | 195 | 3.0 | 8.0 | 0.00 | 0.00 | 0.00 | 60 | 1013.1 |
| 20260905044229 | 88 | 215 | 2.0 | 6.0 | 0.00 | 0.00 | 0.00 | 60 | 1013.2 |
| 20260905043722 | 88 | 175 | 2.0 | 6.0 | 0.00 | 0.00 | 0.00 | 59 | 1013.2 |
| 20260905043223 | 88 | 161 | 2.0 | 6.0 | 0.00 | 0.00 | 0.00 | 59 | 1013.1 |
| 20260905042726 | 88 | 177 | 2.0 | 6.0 | 0.00 | 0.00 | 0.00 | 59 | 1013.2 |
| 20260905042220 | 88 | 151 | 2.0 | 5.0 | 0.00 | 0.00 | 0.00 | 58 | 1013.0 |
| 20260905042015 | 88 | 154 | 1.0 | 4.0 | 0.00 | 0.00 | 0.00 | 58 | 1013.0 |
| 20260905041513 | 89 | 168 | 1.0 | 6.0 | 0.00 | 0.00 | 0.00 | 57 | 1013.1 |
| 20260905040719 | 89 | 159 | 2.0 | 6.0 | 0.00 | 0.00 | 0.00 | 57 | 1013.1 |
| 20260905040219 | 89 | 132 | 2.0 | 5.0 | 0.00 | 0.00 | 0.00 | 56 | 1013.1 |
| 20260905040017 | 89 | 157 | 2.0 | 6.0 | 0.00 | 0.00 | 0.00 | 56 | 1013.0 |
| 20260905035220 | 89 | 157 | 2.0 | 6.0 | 0.00 | 0.00 | 0.00 | 56 | 1013.1 |
| 20260905034723 | 89 | 137 | 2.0 | 5.0 | 0.00 | 0.00 | 0.00 | 56 | 1013.0 |
| 20260905034219 | 89 | 199 | 2.0 | 5.0 | 0.00 | 0.00 | 0.00 | 55 | 1013.0 |
| 20260905033719 | 89 | 157 | 2.0 | 6.0 | 0.00 | 0.00 | 0.00 | 55 | 1013.1 |
| 20260905033217 | 90 | 153 | 2.0 | 6.0 | 0.00 | 0.00 | 0.00 | 55 | 1013.0 |
| 20260905032716 | 90 | 235 | 2.0 | 5.0 | 0.00 | 0.00 | 0.00 | 55 | 1013.0 |
| 20260905032216 | 90 | 169 | 2.0 | 5.0 | 0.00 | 0.00 | 0.00 | 55 | 1012.9 |
| 20260905032010 | 90 | 157 | 2.0 | 4.0 | 0.00 | 0.00 | 0.00 | 55 | 1013.0 |
| 20260905031213 | 90 | 148 | 2.0 | 6.0 | 0.00 | 0.00 | 0.00 | 55 | 1013.0 |
| 20260905030800 | 90 | 140 | 1.0 | 6.0 | 0.00 | 0.00 | 0.00 | 54 | 1012.9 |
| 20260905030744 | 90 | 163 | 2.0 | 6.0 | 0.00 | 0.00 | 0.00 | 55 | 1012.9 |
| 20260905025708 | 90 | 205 | 1.0 | 6.0 | 0.00 | 0.00 | 0.00 | 54 | 1012.9 |
| 20260905025209 | 90 | 150 | 1.0 | 6.0 | 0.00 | 0.00 | 0.00 | 54 | 1012.8 |
| 20260905024707 | 90 | 171 | 2.0 | 7.0 | 0.00 | 0.00 | 0.00 | 53 | 1012.8 |
| 20260905024208 | 91 | 142 | 2.0 | 7.0 | 0.00 | 0.00 | 0.00 | 53 | 1012.8 |
| 20260905023706 | 91 | 184 | 1.0 | 5.0 | 0.00 | 0.00 | 0.00 | 53 | 1012.7 |
| 20260905023206 | 91 | 132 | 2.0 | 7.0 | 0.00 | 0.00 | 0.00 | 52 | 1012.6 |
| 20260905022700 | 91 | 181 | 2.0 | 8.0 | 0.00 | 0.00 | 0.00 | 52 | 1012.5 |
| 20260905022158 | 91 | 152 | 2.0 | 8.0 | 0.00 | 0.00 | 0.00 | 52 | 1012.5 |
| 20260905021655 | 91 | 150 | 1.0 | 6.0 | 0.00 | 0.00 | 0.00 | 51 | 1012.4 |
| 20260905021253 | 91 | 169 | 2.0 | 5.0 | 0.00 | 0.00 | 0.00 | 51 | 1012.2 |
| 20260905021231 | 91 | 183 | 2.0 | 5.0 | 0.00 | 0.00 | 0.00 | 51 | 1012.3 |
| 20260905020150 | 92 | 110 | 2.0 | 5.0 | 0.00 | 0.00 | 0.00 | 51 | 1012.2 |
| 20260905015650 | 92 | 136 | 2.0 | 6.0 | 0.00 | 0.00 | 0.00 | 50 | 1012.1 |
| 20260905015149 | 92 | 136 | 2.0 | 9.0 | 0.00 | 0.00 | 0.00 | 50 | 1012.0 |
| 20260905014646 | 92 | 165 | 2.0 | 9.0 | 0.00 | 0.00 | 0.00 | 50 | 1011.9 |
| 20260905014146 | 92 | 121 | 2.0 | 7.0 | 0.00 | 0.00 | 0.00 | 50 | 1011.8 |
| 20260905013942 | 92 | 84 | 2.0 | 7.0 | 0.00 | 0.00 | 0.00 | 50 | 1011.6 |
| 20260905013237 | 92 | 206 | 3.0 | 8.0 | 0.00 | 0.00 | 0.00 | 50 | 1011.8 |
| 20260905013214 | 92 | 146 | 2.0 | 5.0 | 0.00 | 0.00 | 0.00 | 50 | 1011.8 |
| 20260905012143 | 92 | 172 | 2.0 | 8.0 | 0.00 | 0.00 | 0.00 | 50 | 1011.7 |
| 20260905011941 | 92 | 120 | 2.0 | 7.0 | 0.00 | 0.00 | 0.00 | 50 | 1011.5 |
| 20260905011142 | 93 | 176 | 3.0 | 9.0 | 0.00 | 0.00 | 0.00 | 50 | 1011.6 |
| 20260905010637 | 93 | 156 | 3.0 | 9.0 | 0.00 | 0.00 | 0.00 | 49 | 1011.5 |
| 20260905010136 | 93 | 140 | 3.0 | 6.0 | 0.00 | 0.00 | 0.00 | 49 | 1011.5 |
| 20260905005632 | 93 | 138 | 3.0 | 8.0 | 0.00 | 0.00 | 0.00 | 49 | 1011.4 |
| 20260905005131 | 93 | 173 | 3.0 | 9.0 | 0.00 | 0.00 | 0.00 | 49 | 1011.4 |
| 20260905004630 | 93 | 148 | 3.0 | 9.0 | 0.00 | 0.00 | 0.00 | 49 | 1011.2 |
| 20260905004130 | 94 | 153 | 3.0 | 9.0 | 0.00 | 0.00 | 0.00 | 49 | 1011.2 |
| 20260905003631 | 94 | 101 | 3.0 | 9.0 | 0.00 | 0.00 | 0.00 | 49 | 1011.2 |
| 20260905003130 | 94 | 182 | 2.0 | 8.0 | 0.00 | 0.00 | 0.00 | 48 | 1011.3 |
| 20260905002631 | 94 | 102 | 2.0 | 8.0 | 0.00 | 0.00 | 0.00 | 48 | 1011.0 |
| 20260905002418 | 94 | 250 | 3.0 | 8.0 | 0.00 | 0.00 | 0.00 | 48 | 1011.0 |
| 20260905001924 | 94 | 160 | 3.0 | 8.0 | 0.00 | 0.00 | 0.00 | 48 | 1011.0 |
| 20260905001130 | 95 | 139 | 3.0 | 9.0 | 0.00 | 0.00 | 0.00 | 48 | 1011.0 |
| 20260905000631 | 95 | 113 | 3.0 | 9.0 | 0.00 | 0.00 | 0.00 | 47 | 1011.0 |
| 20260905000130 | 96 | 210 | 3.0 | 9.0 | 0.00 | 0.00 | 0.00 | 47 | 1011.0 |
| 20260904235626 | 96 | 80 | 3.0 | 9.0 | 0.00 | 0.00 | 0.00 | 47 | 1010.9 |
| 20260904235126 | 96 | 161 | 4.0 | 9.0 | 0.00 | 0.00 | 0.00 | 47 | 1010.9 |
| 20260904234627 | 96 | 72 | 4.0 | 9.0 | 0.00 | 0.00 | 0.00 | 48 | 1010.8 |
| 20260904234126 | 96 | 177 | 3.0 | 9.0 | 0.00 | 0.00 | 0.00 | 48 | 1010.9 |
| 20260904233626 | 96 | 114 | 3.0 | 9.0 | 0.00 | 0.00 | 0.00 | 48 | 1011.0 |
| 20260904233126 | 96 | 140 | 3.0 | 12.0 | 0.00 | 0.00 | 0.00 | 47 | 1010.9 |